Погода в Наре

Россия / Калужская область     55°12′40″N   36°52′59″E
темп.,
°C
ветер,
м/с
пор.,
м/с
влажн.,
%
обл.,
%
осадки,
мм/ч
давл.,
гПа
погр.,
м
27 января, чт
чт2700:00−8с1192100 0.1 101712
03:00−8зюз1292100 0.1 101763
06:00−10зюз2497100 0.1 1017120
09:00−17ююз23100100 0.1 101757
12:00−11ююз3694100 0.0 1016243
15:00−9ю3893100 0.1 1015394
18:00−13ююв399874 0.0 1014174
21:00−14ю4129665 0.0 1012262
28 января, пт
пт2800:00−13ю4129483 0.0 1011319
03:00−12ю41295100 0.1 1009361
06:00−11ююв41295100 0.1 1007340
09:00−10ююв51395100 0.4 1006407
12:00−7ююв51394100 1.0 1004479
15:00−5ююв41094100 1.6 1003489
18:00−5ююв41095100 0.6 1003435
21:00−5ююв3996100 1.3 1002351
29 января, сб
сб2900:00−4ююв3797100 0.6 1002259
03:00−5ююв2697100 0.8 1002165
06:00−5ююв2598100 0.6 1002127
09:00−5ююз2499100 0.7 100394
12:00−2юз2596100 0.2 1003288
15:00−1зюз2597100 1.4 1003373
18:00−4сз389686 0.3 1005290
21:00−5зсз369495 0.4 1006397
30 января, вс
вс3000:00−12з259989 0.1 100662
03:00−16юз1110099 0.1 100513
06:00−12ю31098100 0.1 1000218
09:00−7ю51492100 0.1 996552
12:00−5ю61594100 1.3 991905
15:00−4ю61395100 3.4 988819
18:00−4ю51295100 0.9 987655
21:00−3ю41297100 2.3 985609
31 января, пн
пн3100:00−2ю399694 0.6 986346
03:00−3ю3895100 1.3 986411
06:00−4вюв3797100 0.1 985193
09:00−3вюв31097100 1.4 985520
12:00−1в3697100 1.6 985485
15:00−1ссв1296100 2.5 985274
18:00−4сз269871 0.4 987118
21:00−5зсз399679 0.5 989278